SCP
1 1 1 1 1 0 0 0 0 0 0 0 0 0 0 0 0 1 1 1 0 0 1 1 0 0 1 1 1 1 1 1 1 1 1 1 1 1 1 1 1 1 1 1 1 1 1 1 0
1 1 1 1 0 0 0 0 0 0 0 0 0 0 0 0 0 1 1 0 0 0 1 0 0 0 1 1 1 1 1 1 1 1 1 1 1 2 2 2 1 1 1 1 1 1 1 0 0
0 1 1 0 0 0 0 0 0 1 1 0 0 0 0 0 0 0 0 0 0 1 1 0 0 0 1 1 1 1 1 1 1 1 1 1 1 1 2 2 1 1 1 0 0 0 0 0 0
0 0 0 0 0 0 0 0 1 1 1 1 0 0 0 0 0 0 0 0 0 0 0 0 0 0 0 0 0 0 1 1 1 1 1 1 1 1 1 1 1 1 0 0 0 0 0 0 0
0 0 0 0 0 0 0 0 1 1 1 1 1 1 1 0 0 0 0 0 0 0 0 0 0 0 0 0 0 0 0 1 1 1 1 1 1 1 1 1 1 0 0 0 0 0 0 0 0
0 0 0 0 0 0 0 1 1 1 1 1 1 1 1 1 1 1 0 0 0 0 0 0 0 0 0 0 0 0 0 0 0 1 1 1 1 1 1 0 0 0 0 0 0 0 0 0 0
0 0 0 0 0 0 0 1 1 1 1 1 1 1 1 1 1 1 0 0 0 0 0 0 0 0 0 0 0 0 0 0 0 0 0 0 0 0 0 0 0 0 0 0 0 0 0 0 0
0 0 0 0 0 0 0 0 1 1 1 1 1 1 1 2 2 1 1 1 1 0 0 0 0 0 0 0 0 0 0 0 0 0 0 0 0 0 0 0 0 0 0 0 0 0 0 0 0
0 0 0 0 0 0 0 0 1 1 1 1 1 1 2 3 2 2 1 1 1 1 0 0 0 0 0 0 0 0 0 0 0 0 0 0 0 0 0 0 0 0 0 0 0 0 0 0 0
0 0 0 0 0 0 0 0 1 1 1 1 1 1 2 3 3 2 2 1 1 1 0 0 0 0 0 0 0 0 0 0 0 0 0 0 0 0 0 0 0 0 0 0 0 0 0 0 0
0 0 0 0 0 0 0 0 0 0 1 1 1 2 2 3 3 3 2 2 2 1 0 0 0 0 0 0 0 0 0 0 0 0 0 0 0 0 0 1 1 0 0 0 0 0 0 0 0
0 0 0 0 0 0 0 0 0 0 1 1 1 2 2 2 3 3 2 2 2 1 1 0 0 0 0 0 0 0 0 0 0 0 0 0 0 0 0 1 1 0 0 0 0 0 0 0 0
0 0 0 0 0 0 0 0 0 0 1 1 1 2 2 2 3 3 2 2 3 2 1 0 0 0 0 0 0 0 0 0 0 0 0 0 0 0 0 0 0 0 0 0 0 0 0 0 0
0 0 0 0 0 0 0 0 0 1 1 1 1 2 2 2 2 2 2 3 3 2 1 1 1 0 0 0 0 0 0 0 0 0 0 0 0 0 0 0 0 0 0 0 0 0 0 0 0
0 0 0 0 0 0 0 0 1 1 1 1 1 2 2 2 2 2 2 3 3 2 1 1 1 1 1 0 0 0 0 0 0 0 1 1 0 0 0 0 0 0 0 0 0 0 0 0 0
0 0 0 0 0 0 0 0 1 1 1 1 2 2 2 2 2 1 2 3 3 2 1 1 1 1 1 1 1 0 0 0 0 1 1 1 1 1 0 0 0 1 1 0 0 0 0 0 0
0 0 0 0 0 0 0 1 1 1 1 2 2 2 2 2 1 1 2 3 3 3 2 2 2 1 1 1 1 1 1 1 1 1 1 1 1 1 1 1 1 1 1 1 1 1 1 1 0
0 0 0 0 0 0 0 0 1 1 1 2 2 2 2 2 1 1 2 3 3 3 3 3 2 2 1 1 1 1 1 1 1 1 2 2 2 2 1 1 1 1 1 1 1 1 1 1 1
0 0 0 0 0 0 0 0 0 1 1 2 2 2 2 2 2 2 2 3 3 3 3 3 2 2 2 2 2 2 2 2 2 2 2 2 2 2 2 1 1 1 1 1 1 1 1 1 1
0 0 0 1 1 0 0 0 0 1 1 1 2 2 2 2 2 2 2 3 3 3 3 3 3 3 3 3 3 3 3 3 3 3 3 3 3 3 2 2 2 2 2 2 1 1 1 1 1
0 0 0 1 1 1 0 0 0 1 1 1 1 2 2 2 2 2 2 3 3 3 3 3 3 4 4 4 4 4 4 4 3 3 3 3 3 3 3 3 2 2 2 2 2 2 1 1 1
0 0 0 0 0 0 0 0 1 1 1 1 1 1 2 2 2 2 2 3 3 3 3 3 3 4 4 4 4 4 4 4 4 4 4 4 4 4 4 3 3 2 2 2 2 2 2 2 1
0 0 0 0 0 0 0 0 0 1 1 1 1 1 1 2 2 2 3 3 3 3 3 3 4 4 4 4 4 4 4 5 5 5 5 5 5 4 3 3 3 2 2 2 2 2 2 2 2
0 0 0 0 0 0 0 0 0 1 1 1 1 1 1 1 2 2 3 3 3 3 3 4 4 4 4 3 3 4 4 5 5 6 6 6 5 4 3 2 2 2 2 2 2 2 2 2 2
0 0 0 0 0 0 0 0 0 0 1 1 1 1 1 1 2 2 3 3 3 3 4 4 4 4 3 3 3 4 4 5 5 5 6 6 5 4 3 2 2 2 2 2 2 2 2 2 2
0 0 0 0 0 0 0 0 0 1 1 1 1 1 1 1 2 2 3 3 3 3 4 4 3 3 3 3 4 4 4 4 4 4 4 4 4 3 3 2 2 2 2 3 3 3 2 2 2
0 0 0 0 0 0 0 0 1 1 1 1 1 1 1 1 2 2 3 3 3 3 4 4 3 3 4 4 5 5 4 4 4 4 4 3 3 3 3 3 2 2 2 3 3 3 3 2 2
0 0 0 0 0 0 0 0 1 1 1 1 1 1 2 2 2 2 3 3 3 3 4 5 4 4 4 4 5 4 4 4 4 4 3 3 3 3 3 3 2 2 2 3 3 3 2 2 2
0 0 0 0 0 0 0 1 1 2 2 2 2 2 2 2 2 3 3 3 4 4 5 5 5 4 3 4 4 4 4 4 4 3 3 3 4 3 3 3 2 2 2 2 2 2 2 2 2
0 0 0 0 0 0 0 1 1 2 2 2 2 2 2 2 3 3 3 4 4 5 5 5 4 3 3 4 4 4 3 3 4 3 3 4 4 3 3 2 2 2 2 2 2 2 2 2 3
Wind_Speed
8 6 5 6 5 4 11 9 7 7 6 7 6 6 7 9 8 11 10 11 12 13 14 13 12 13 14 14 15 16 16 16 16 16 16 16 16 16 17 16 16 16 17 17 17 16 16 15 16
5 4 6 6 1 8 10 8 8 9 8 7 7 6 8 9 9 11 11 12 13 13 13 13 13 13 13 14 14 15 15 16 15 16 16 16 16 16 16 16 16 16 16 16 16 16 15 15 15
6 7 6 2 5 8 9 8 9 9 7 5 6 7 7 7 9 9 12 14 13 13 13 14 13 13 13 13 13 14 14 15 15 15 15 15 15 15 15 15 15 15 15 16 16 15 15 14 14
6 6 5 1 9 9 7 7 7 8 7 6 7 9 8 7 6 11 15 14 14 13 14 15 12 13 13 13 13 13 13 14 14 14 14 14 15 15 15 15 14 14 15 15 15 14 14 14 13
6 6 3 5 8 7 6 6 5 5 5 6 6 10 9 6 10 15 15 14 13 13 14 15 12 13 12 12 13 13 13 13 14 13 13 14 14 14 14 14 14 14 14 14 13 13 13 13 12
5 5 2 6 8 6 6 5 4 6 8 7 8 11 9 8 13 14 14 12 12 13 14 15 13 12 12 12 12 12 12 12 12 13 13 13 13 13 13 13 13 13 13 13 12 12 12 12 11
5 3 2 5 7 7 5 3 3 5 7 7 7 9 10 11 13 13 12 11 11 11 12 13 13 12 12 11 11 12 11 11 12 12 12 12 12 12 12 12 12 12 12 12 11 11 11 11 10
5 4 4 4 5 7 6 4 4 5 7 8 5 7 11 14 14 13 12 11 10 10 10 11 11 10 11 12 11 11 11 11 11 11 11 11 12 12 11 11 11 11 11 11 11 11 11 10 10
6 6 4 4 3 6 6 6 5 5 9 7 4 5 14 19 17 15 13 11 10 9 8 9 10 9 8 10 12 11 11 10 10 10 10 8 8 9 8 12 11 10 10 10 9 9 10 9 10
6 4 4 3 2 3 5 5 7 7 8 8 9 12 18 18 17 16 15 14 13 11 10 8 9 9 8 7 8 6 7 8 5 6 7 5 5 5 8 11 9 9 9 9 8 7 8 6 7
4 1 3 2 1 1 4 5 6 6 6 7 12 18 20 19 16 15 14 13 12 11 10 9 8 7 7 6 6 4 4 5 6 6 5 4 5 5 5 5 7 7 7 6 7 6 3 3 4
4 2 1 1 0 2 3 5 5 4 3 6 12 19 20 19 17 16 14 13 12 12 11 10 9 7 5 5 5 5 4 4 4 6 5 5 3 3 3 2 3 4 3 2 2 2 3 3 4
6 4 2 2 3 3 4 5 4 4 5 9 15 18 19 18 16 14 13 12 12 11 11 9 8 8 7 5 4 4 4 4 5 4 4 3 3 3 4 2 2 2 3 3 2 2 3 3 3
4 4 4 3 4 4 6 6 6 5 8 12 16 17 17 16 16 14 14 13 13 12 12 10 10 9 7 6 4 3 4 3 4 4 5 4 3 3 3 3 2 2 2 2 1 2 2 2 2
5 7 7 5 5 6 7 8 7 8 11 13 15 15 16 15 15 15 14 13 13 12 11 11 10 9 8 7 6 4 4 5 4 4 5 4 3 3 2 2 2 2 3 3 1 2 2 2 2
9 11 10 7 6 7 10 9 9 10 12 13 13 14 15 15 15 13 13 12 12 11 11 11 9 10 9 7 5 4 4 4 4 4 5 5 4 4 3 2 2 2 2 3 2 2 1 1 1
12 14 12 9 7 7 11 7 10 10 12 12 13 14 15 15 15 14 13 13 12 12 11 11 10 10 9 8 6 5 4 4 4 4 4 5 5 5 4 2 1 3 2 2 2 2 1 1 1
14 14 12 10 8 8 11 7 8 10 11 12 13 14 14 15 16 15 14 13 12 12 12 11 11 10 9 8 6 5 5 5 5 4 4 5 5 5 4 3 3 4 3 2 1 1 1 2 2
8 11 12 8 5 8 11 9 8 10 11 12 13 14 15 14 15 15 14 14 13 13 13 13 12 11 9 7 7 7 7 6 5 5 5 6 5 5 5 3 4 4 3 3 3 3 4 3 2
10 12 11 7 5 7 9 10 9 10 12 12 12 13 14 14 14 15 15 15 15 15 14 14 13 12 11 8 7 5 5 5 5 4 5 6 6 6 6 5 5 5 3 4 4 4 3 3 3
12 12 10 8 6 8 9 13 12 10 11 11 12 12 13 14 15 16 16 16 16 16 15 13 14 13 12 10 8 6 5 5 5 6 6 6 7 7 5 5 6 4 5 4 5 5 5 4 4
12 8 7 8 10 9 10 11 12 11 11 13 13 13 13 14 14 15 16 17 17 16 15 14 14 13 12 12 10 10 8 8 7 5 5 7 7 7 7 7 6 5 5 4 6 5 4 5 5
8 6 8 9 11 9 11 12 9 11 12 13 13 13 13 13 14 15 16 17 16 16 15 14 14 14 13 13 11 11 10 8 6 6 6 6 6 7 7 7 6 6 5 5 5 4 5 5 5
7 8 7 8 10 13 12 12 9 9 11 10 10 12 12 13 13 14 14 14 15 15 15 14 14 14 14 14 13 13 12 10 8 8 7 7 6 6 8 7 6 7 6 5 6 6 7 6 5
13 12 9 11 11 11 9 11 8 4 5 6 7 8 10 11 12 13 14 15 15 16 16 14 15 14 14 14 14 13 12 11 10 9 8 7 6 6 7 7 7 7 6 6 6 7 6 6 6
17 17 11 9 11 9 9 11 6 3 3 4 5 6 7 9 11 12 14 14 15 16 16 15 15 14 14 14 13 12 12 10 9 10 8 8 6 6 6 7 7 7 7 7 6 6 6 6 7
15 16 13 9 6 8 9 7 6 6 5 4 4 4 5 7 9 11 13 14 15 15 16 16 15 14 14 13 13 12 12 11 9 8 9 7 7 6 7 7 7 7 7 7 6 5 6 6 7
11 12 9 10 9 11 9 10 7 8 6 4 3 4 3 5 7 9 11 12 13 14 14 15 14 14 13 13 12 10 11 11 10 9 9 8 7 6 7 7 7 7 7 7 7 7 6 7 7
12 14 11 11 10 9 8 6 3 4 4 3 2 2 2 3 5 7 9 11 12 12 13 13 13 13 12 12 11 10 10 10 10 9 9 8 7 7 7 7 7 7 7 7 6 7 7 8 7
13 13 13 11 9 9 8 4 6 3 2 1 1 1 1 2 3 5 8 10 11 12 12 12 12 12 12 11 10 10 10 9 9 9 9 8 8 7 7 7 7 7 7 6 7 8 8 8 8
Wind_Direction
231 231 239 243 232 84 69 67 70 87 79 74 68 54 56 41 32 83 110 124 122 117 115 114 101 100 98 96 97 99 101 102 102 101 101 101 99 99 99 97 96 97 98 99 97 95 94 95 98
261 242 238 243 317 81 73 70 76 71 91 104 84 74 72 67 63 105 126 127 126 120 120 111 107 104 101 98 97 99 100 101 102 102 101 100 99 98 98 97 96 97 98 99 98 98 98 98 99
252 244 264 253 58 62 76 83 90 96 104 103 89 65 59 77 104 119 127 135 129 121 117 111 113 108 105 101 98 97 100 102 103 102 101 100 98 98 97 97 98 98 99 100 100 100 100 100 101
254 232 238 101 80 67 73 100 114 117 102 93 107 92 81 83 108 124 134 139 132 127 121 115 117 113 109 106 103 101 101 104 103 101 100 99 98 98 98 97 97 98 99 99 100 101 101 102 103
250 258 203 106 84 83 92 109 126 111 103 107 108 102 92 84 115 130 140 143 137 128 122 121 120 116 113 111 108 105 102 102 101 101 101 100 100 99 99 99 99 100 101 100 100 101 101 103 104
249 246 193 102 97 104 107 118 130 104 110 117 118 112 95 120 133 141 143 144 135 132 127 123 123 120 117 113 111 108 106 104 103 102 101 100 100 100 99 100 101 102 102 101 102 102 103 103 105
282 265 101 106 112 115 108 126 120 110 122 119 125 114 120 142 142 142 141 145 137 136 132 135 136 131 123 116 115 113 111 109 107 104 103 103 102 101 102 102 103 103 102 102 101 103 104 106 107
296 255 156 132 120 106 118 124 103 118 105 117 140 134 144 152 149 146 145 145 141 140 140 139 135 136 141 133 123 118 116 114 111 108 109 111 113 112 115 116 104 103 103 102 102 104 106 108 111
266 242 160 131 115 112 132 138 117 107 126 135 115 103 130 145 151 151 150 151 150 148 147 145 139 145 144 134 130 134 127 125 130 125 128 152 138 126 133 97 105 105 104 104 105 108 113 122 122
250 233 107 80 54 107 146 153 137 154 149 140 126 116 132 149 158 161 162 162 160 159 158 155 148 152 147 136 138 147 143 139 143 126 137 131 103 104 106 107 107 108 112 117 114 126 157 185 134
245 256 101 125 66 185 161 154 161 173 167 163 155 146 151 159 164 168 169 168 162 163 164 159 154 160 151 145 150 143 135 137 138 128 132 121 130 131 130 136 139 138 149 137 140 171 143 98 83
219 173 198 160 71 218 170 159 171 184 91 129 150 153 158 167 171 173 171 170 167 170 169 164 159 161 164 154 145 156 151 150 141 136 158 140 131 130 120 126 128 139 127 111 115 107 96 89 100
213 183 186 226 233 220 193 179 173 159 121 131 144 157 166 172 173 173 172 173 172 174 172 167 168 165 166 162 172 160 152 148 138 144 145 149 150 141 125 118 114 114 124 143 139 108 115 118 117
198 208 212 219 212 192 193 176 181 150 142 145 155 165 173 175 175 174 176 179 179 179 176 171 176 170 172 174 176 166 162 149 158 156 149 172 155 132 138 149 143 143 138 92 112 122 138 127 111
214 217 204 193 188 181 194 189 189 151 155 158 164 170 175 178 180 183 182 182 183 182 176 176 178 175 179 183 184 181 176 172 170 156 161 179 174 152 173 158 172 153 141 144 162 134 143 160 155
207 216 206 170 187 183 216 196 158 159 170 170 172 174 178 182 188 188 184 185 185 182 178 179 182 179 182 186 192 190 188 175 176 174 170 182 181 183 201 194 172 165 176 171 168 185 168 151 168
204 213 205 166 183 189 222 207 149 172 183 181 180 181 183 184 192 191 189 187 186 184 179 180 185 182 185 185 188 195 189 196 194 189 185 182 194 199 217 215 172 200 197 199 218 147 208 190 203
202 209 203 190 174 205 219 210 168 184 196 192 188 187 189 192 194 191 191 189 186 185 183 183 184 185 185 186 188 198 200 198 200 199 195 199 200 205 222 207 205 220 204 205 217 194 230 241 244
228 219 208 191 172 216 220 217 197 190 201 199 194 193 196 199 191 189 189 190 187 187 187 187 189 184 188 190 195 196 197 199 200 203 201 208 212 204 221 226 199 228 222 224 214 220 205 225 234
221 219 208 180 185 227 222 225 211 201 209 208 202 200 200 196 192 189 189 191 192 190 191 190 192 188 194 193 199 202 206 206 205 212 201 212 216 216 213 221 221 217 220 220 224 230 246 237 222
216 221 211 197 191 216 227 223 211 205 213 214 213 211 207 200 195 191 192 194 195 193 194 195 194 191 196 193 194 192 194 213 206 206 205 211 216 220 233 225 235 226 231 220 223 220 231 242 236
211 214 217 208 213 206 218 230 201 203 211 214 214 212 211 204 199 195 194 195 197 196 194 196 194 194 195 196 202 200 204 209 211 211 206 204 211 219 221 227 230 235 236 224 231 220 234 243 246
213 184 210 218 227 231 213 242 209 192 215 216 213 214 213 206 202 198 198 197 198 196 194 194 193 196 197 200 201 207 217 219 214 211 209 215 210 219 223 224 227 230 237 233 244 234 239 238 246
178 177 193 221 230 229 219 233 227 197 213 220 212 210 211 207 203 199 197 195 195 195 195 194 192 196 197 200 204 210 218 222 222 217 212 214 212 216 218 223 225 230 236 231 232 234 230 243 252
197 194 194 201 214 225 201 228 235 205 211 233 227 216 209 204 203 197 193 193 191 192 192 192 192 196 197 200 205 209 216 221 223 224 221 225 222 216 213 222 225 233 233 236 235 229 240 237 240
204 213 221 217 213 201 188 227 219 188 210 233 237 227 211 206 201 197 193 191 191 190 189 190 192 196 197 201 205 209 212 219 223 221 228 223 229 227 215 221 227 232 234 234 232 238 230 233 240
202 219 236 250 244 232 197 206 210 196 205 211 206 203 201 202 199 197 193 190 190 188 189 190 190 193 196 200 202 207 210 219 224 219 223 230 229 230 223 228 230 229 228 232 231 236 240 236 239
225 211 214 231 226 226 209 209 207 182 195 192 189 189 184 192 192 191 190 190 189 188 186 188 189 191 193 197 201 203 208 213 218 222 223 230 231 231 229 231 231 230 229 228 231 237 234 238 242
200 207 216 223 240 238 218 197 154 182 185 186 150 154 182 189 185 185 184 185 184 184 182 184 187 188 191 196 199 205 205 208 212 217 219 219 224 225 228 230 231 232 233 231 232 240 237 238 245
208 210 211 217 216 241 251 157 107 130 143 152 109 100 143 181 174 174 174 175 178 180 181 182 186 186 189 192 196 201 204 207 211 214 215 211 215 221 224 227 229 232 232 231 233 240 240 240 245